Time,TemperatureF,DewpointF,PressureIn,WindDirection,WindDirectionDegrees,WindSpeedMPH,WindSpeedGustMPH,Humidity,HourlyPrecipIn,Conditions,Clouds,dailyrainin,SoftwareType,DateUTC
2013-03-01 00:02:00,28.0,22.0,29.98,NNE,23,0.0,0.0,77,0.00,,,0.12,,2013-03-01 05:02:00,
2013-03-01 00:11:00,28.0,22.0,29.98,NNE,23,0.0,0.0,77,0.00,,,0.12,,2013-03-01 05:11:00,
2013-03-01 00:22:00,28.0,22.0,29.98,North,0,0.0,0.0,77,0.00,,,0.12,,2013-03-01 05:22:00,
2013-03-01 00:33:00,28.0,22.0,29.98,North,0,1.0,3.0,78,0.00,,,0.12,,2013-03-01 05:33:00,
2013-03-01 00:42:00,28.0,22.0,29.98,North,0,1.0,3.0,78,0.00,,,0.12,,2013-03-01 05:42:00,
2013-03-01 00:53:00,28.0,22.0,29.98,NE,45,1.0,2.0,78,0.00,,,0.12,,2013-03-01 05:53:00,
2013-03-01 01:02:00,28.0,22.0,29.98,NE,45,0.0,2.0,78,0.00,,,0.10,,2013-03-01 06:02:00,
2013-03-01 01:12:00,28.0,22.0,29.99,North,0,6.0,9.0,78,0.00,,,0.10,,2013-03-01 06:12:00,
2013-03-01 01:22:00,28.0,22.0,29.99,North,0,6.0,9.0,78,0.00,,,0.10,,2013-03-01 06:22:00,
2013-03-01 01:32:00,28.0,22.0,29.99,North,0,1.0,3.0,78,0.00,,,0.10,,2013-03-01 06:32:00,
2013-03-01 01:42:00,28.0,22.0,29.99,North,0,1.0,3.0,78,0.00,,,0.10,,2013-03-01 06:42:00,
2013-03-01 01:53:00,28.0,22.0,30.00,North,0,0.0,0.0,78,0.00,,,0.10,,2013-03-01 06:53:00,
2013-03-01 02:02:00,28.0,22.0,30.00,North,0,0.0,0.0,78,0.00,,,0.10,,2013-03-01 07:02:00,
2013-03-01 02:11:00,28.0,22.0,30.00,North,0,0.0,0.0,78,0.00,,,0.10,,2013-03-01 07:11:00,
2013-03-01 02:22:00,27.0,21.0,30.00,North,0,1.0,3.0,78,0.00,,,0.10,,2013-03-01 07:22:00,
2013-03-01 02:32:00,27.0,21.0,30.00,NE,45,0.0,0.0,78,0.00,,,0.10,,2013-03-01 07:32:00,
2013-03-01 02:42:00,27.0,21.0,30.00,NE,45,0.0,0.0,78,0.00,,,0.10,,2013-03-01 07:42:00,
2013-03-01 02:52:00,27.0,21.0,30.00,NNE,23,0.0,7.0,78,0.00,,,0.10,,2013-03-01 07:52:00,
2013-03-01 03:02:00,27.0,21.0,30.00,North,0,0.0,0.0,78,0.00,,,0.10,,2013-03-01 08:02:00,
2013-03-01 03:12:00,27.0,21.0,30.00,North,0,0.0,0.0,78,0.00,,,0.10,,2013-03-01 08:12:00,
2013-03-01 03:22:00,27.0,21.0,30.00,North,0,2.0,6.0,78,0.00,,,0.10,,2013-03-01 08:22:00,
2013-03-01 03:32:00,27.0,21.0,30.00,North,0,0.0,2.0,78,0.00,,,0.10,,2013-03-01 08:32:00,
2013-03-01 03:42:00,27.0,21.0,30.00,North,0,0.0,2.0,78,0.00,,,0.10,,2013-03-01 08:42:00,
2013-03-01 03:52:00,26.0,20.0,30.00,North,0,0.0,0.0,78,0.00,,,0.10,,2013-03-01 08:52:00,
2013-03-01 04:02:00,26.0,20.0,30.01,North,0,3.0,7.0,78,0.00,,,0.10,,2013-03-01 09:02:00,
2013-03-01 04:12:00,26.0,20.0,30.01,North,0,3.0,7.0,78,0.00,,,0.10,,2013-03-01 09:12:00,
2013-03-01 04:22:00,26.0,20.0,30.01,North,0,0.0,3.0,77,0.00,,,0.10,,2013-03-01 09:22:00,
2013-03-01 04:32:00,26.0,20.0,30.01,NNE,23,2.0,2.0,78,0.00,,,0.10,,2013-03-01 09:32:00,
2013-03-01 04:42:00,26.0,20.0,30.01,NNE,23,2.0,2.0,78,0.00,,,0.10,,2013-03-01 09:42:00,
2013-03-01 04:52:00,26.0,20.0,30.01,NNE,23,1.0,0.0,78,0.00,,,0.10,,2013-03-01 09:52:00,
2013-03-01 05:02:00,26.0,20.0,30.01,NNE,23,1.0,0.0,78,0.00,,,0.10,,2013-03-01 10:02:00,
2013-03-01 05:11:00,25.0,19.0,30.02,NNE,23,0.0,0.0,78,0.00,,,0.10,,2013-03-01 10:11:00,
2013-03-01 05:22:00,25.0,19.0,30.02,NNE,23,0.0,0.0,78,0.00,,,0.10,,2013-03-01 10:22:00,
2013-03-01 05:32:00,25.0,19.0,30.03,North,0,2.0,3.0,78,0.00,,,0.10,,2013-03-01 10:32:00,
2013-03-01 05:42:00,25.0,19.0,30.03,North,0,2.0,3.0,78,0.00,,,0.10,,2013-03-01 10:42:00,
2013-03-01 05:53:00,25.0,19.0,30.03,NNE,23,1.0,0.0,77,0.00,,,0.08,,2013-03-01 10:53:00,
2013-03-01 06:01:00,24.0,18.0,30.03,NE,45,0.0,2.0,77,0.00,,,0.08,,2013-03-01 11:01:00,
2013-03-01 06:11:00,24.0,18.0,30.03,NE,45,0.0,2.0,77,0.00,,,0.08,,2013-03-01 11:11:00,
2013-03-01 06:22:00,24.0,18.0,30.04,North,0,1.0,3.0,77,0.00,,,0.08,,2013-03-01 11:22:00,
2013-03-01 06:32:00,24.0,18.0,30.04,NNE,23,0.0,0.0,77,0.00,,,0.08,,2013-03-01 11:32:00,
2013-03-01 06:42:00,24.0,18.0,30.04,NNE,23,0.0,0.0,77,0.00,,,0.08,,2013-03-01 11:42:00,
2013-03-01 06:52:00,24.0,18.0,30.04,North,0,6.0,10.0,78,0.00,,,0.08,,2013-03-01 11:52:00,
2013-03-01 07:02:00,24.0,18.0,30.05,North,0,0.0,8.0,78,0.00,,,0.08,,2013-03-01 12:02:00,
2013-03-01 07:11:00,24.0,18.0,30.05,North,0,0.0,8.0,78,0.00,,,0.08,,2013-03-01 12:11:00,
2013-03-01 07:21:00,24.0,18.0,30.05,NE,45,2.0,8.0,77,0.00,,,0.08,,2013-03-01 12:21:00,
2013-03-01 07:32:00,23.0,17.0,30.05,North,0,2.0,6.0,77,0.00,,,0.08,,2013-03-01 12:32:00,
2013-03-01 07:42:00,23.0,17.0,30.05,North,0,2.0,6.0,77,0.00,,,0.08,,2013-03-01 12:42:00,
2013-03-01 07:52:00,23.0,17.0,30.05,North,0,0.0,0.0,77,0.00,,,0.08,,2013-03-01 12:52:00,
2013-03-01 08:01:00,23.0,17.0,30.06,NE,45,6.0,9.0,78,0.00,,,0.08,,2013-03-01 13:01:00,
2013-03-01 08:11:00,23.0,17.0,30.07,NNE,23,0.0,0.0,78,0.00,,,0.08,,2013-03-01 13:11:00,
2013-03-01 08:22:00,23.0,17.0,30.07,NNE,23,0.0,0.0,78,0.00,,,0.08,,2013-03-01 13:22:00,
2013-03-01 08:32:00,23.0,17.0,30.07,NNE,23,1.0,0.0,78,0.00,,,0.08,,2013-03-01 13:32:00,
2013-03-01 08:42:00,23.0,17.0,30.07,NNE,23,1.0,0.0,78,0.00,,,0.08,,2013-03-01 13:42:00,
2013-03-01 08:52:00,23.0,17.0,30.08,North,0,0.0,0.0,78,0.00,,,0.08,,2013-03-01 13:52:00,
2013-03-01 09:01:00,23.0,17.0,30.08,North,0,0.0,0.0,78,0.00,,,0.08,,2013-03-01 14:01:00,
2013-03-01 09:11:00,23.0,17.0,30.08,North,0,0.0,0.0,78,0.00,,,0.08,,2013-03-01 14:11:00,
2013-03-01 09:21:00,23.0,17.0,30.08,NNE,23,5.0,5.0,77,0.00,,,0.08,,2013-03-01 14:21:00,
2013-03-01 09:32:00,23.0,17.0,30.09,NNW,338,3.0,6.0,77,0.00,,,0.06,,2013-03-01 14:32:00,
2013-03-01 09:42:00,23.0,17.0,30.09,NNW,338,3.0,6.0,77,0.00,,,0.06,,2013-03-01 14:42:00,
2013-03-01 09:52:00,23.0,17.0,30.09,North,0,3.0,6.0,77,0.00,,,0.06,,2013-03-01 14:52:00,
2013-03-01 10:02:00,23.0,17.0,30.09,North,0,1.0,2.0,77,0.00,,,0.06,,2013-03-01 15:02:00,
2013-03-01 10:11:00,24.0,18.0,30.09,North,0,0.0,0.0,77,0.00,,,0.06,,2013-03-01 15:11:00,
2013-03-01 10:21:00,24.0,18.0,30.09,North,0,0.0,0.0,77,0.00,,,0.06,,2013-03-01 15:21:00,
2013-03-01 10:32:00,24.0,18.0,30.10,NNE,23,0.0,5.0,77,0.00,,,0.06,,2013-03-01 15:32:00,
2013-03-01 10:42:00,24.0,18.0,30.10,NNE,23,0.0,5.0,77,0.00,,,0.06,,2013-03-01 15:42:00,
2013-03-01 10:52:00,24.0,18.0,30.10,North,0,0.0,0.0,76,0.00,,,0.04,,2013-03-01 15:52:00,
2013-03-01 11:01:00,25.0,18.0,30.10,North,0,2.0,3.0,75,0.00,,,0.04,,2013-03-01 16:01:00,
2013-03-01 11:11:00,25.0,18.0,30.10,North,0,2.0,3.0,75,0.00,,,0.04,,2013-03-01 16:11:00,
2013-03-01 11:21:00,25.0,18.0,30.10,NNE,23,0.0,9.0,75,0.00,,,0.04,,2013-03-01 16:21:00,
2013-03-01 11:32:00,25.0,18.0,30.10,NNW,338,8.0,8.0,75,0.00,,,0.04,,2013-03-01 16:32:00,
2013-03-01 11:42:00,25.0,18.0,30.10,NNW,338,8.0,8.0,75,0.00,,,0.04,,2013-03-01 16:42:00,
2013-03-01 11:52:00,25.0,18.0,30.10,NW,315,12.0,15.0,75,0.00,,,0.04,,2013-03-01 16:52:00,
2013-03-01 12:01:00,25.0,18.0,30.10,North,0,1.0,3.0,75,0.00,,,0.04,,2013-03-01 17:01:00,
2013-03-01 12:11:00,26.0,19.0,30.10,NW,315,3.0,12.0,75,0.00,,,0.02,,2013-03-01 17:11:00,
2013-03-01 12:21:00,26.0,19.0,30.10,NW,315,3.0,12.0,75,0.00,,,0.02,,2013-03-01 17:21:00,
2013-03-01 12:32:00,26.0,19.0,30.10,North,0,1.0,1.0,74,0.00,,,0.02,,2013-03-01 17:32:00,
2013-03-01 12:42:00,26.0,19.0,30.10,NNE,23,3.0,5.0,74,0.00,,,0.02,,2013-03-01 17:42:00,
2013-03-01 12:52:00,26.0,19.0,30.10,NNE,23,3.0,5.0,74,0.00,,,0.02,,2013-03-01 17:52:00,
2013-03-01 13:01:00,26.0,19.0,30.09,North,0,0.0,3.0,74,0.00,,,0.02,,2013-03-01 18:01:00,
2013-03-01 13:12:00,26.0,19.0,30.09,North,0,0.0,3.0,74,0.00,,,0.02,,2013-03-01 18:12:00,
2013-03-01 13:22:00,28.0,20.0,30.09,North,0,0.0,0.0,73,0.00,,,0.02,,2013-03-01 18:22:00,
2013-03-01 13:32:00,29.0,21.0,30.09,North,0,0.0,0.0,72,0.00,,,0.00,,2013-03-01 18:32:00,
2013-03-01 13:42:00,30.0,21.0,30.09,North,0,0.0,0.0,70,0.00,,,0.00,,2013-03-01 18:42:00,
2013-03-01 13:52:00,30.0,21.0,30.09,North,0,0.0,0.0,70,0.00,,,0.00,,2013-03-01 18:52:00,
2013-03-01 14:01:00,29.0,20.0,30.08,NE,45,0.0,3.0,70,0.00,,,0.00,,2013-03-01 19:01:00,
2013-03-01 14:11:00,29.0,20.0,30.08,NE,45,0.0,3.0,70,0.00,,,0.00,,2013-03-01 19:11:00,
2013-03-01 14:21:00,31.0,22.0,30.07,North,0,0.0,0.0,69,0.00,,,0.00,,2013-03-01 19:21:00,
2013-03-01 14:32:00,31.0,22.0,30.07,NE,45,1.0,3.0,69,0.00,,,0.00,,2013-03-01 19:32:00,
2013-03-01 14:42:00,31.0,22.0,30.07,NE,45,1.0,3.0,69,0.00,,,0.00,,2013-03-01 19:42:00,
2013-03-01 14:52:00,31.0,22.0,30.07,North,0,7.0,8.0,68,0.00,,,0.00,,2013-03-01 19:52:00,
2013-03-01 15:01:00,30.0,21.0,30.07,NE,45,7.0,9.0,68,0.00,,,0.00,,2013-03-01 20:01:00,
2013-03-01 15:11:00,30.0,21.0,30.07,NE,45,7.0,9.0,68,0.00,,,0.00,,2013-03-01 20:11:00,
2013-03-01 15:21:00,30.0,21.0,30.07,NNW,338,3.0,9.0,68,0.00,,,0.00,,2013-03-01 20:21:00,
2013-03-01 15:32:00,29.0,20.0,30.07,North,0,5.0,5.0,68,0.00,,,0.00,,2013-03-01 20:32:00,
2013-03-01 15:42:00,29.0,20.0,30.07,North,0,5.0,5.0,68,0.00,,,0.00,,2013-03-01 20:42:00,
2013-03-01 15:52:00,29.0,20.0,30.07,NNW,338,6.0,9.0,69,0.00,,,0.00,,2013-03-01 20:52:00,
2013-03-01 16:01:00,29.0,20.0,30.07,NNE,23,0.0,0.0,69,0.00,,,0.00,,2013-03-01 21:01:00,
2013-03-01 16:11:00,29.0,20.0,30.07,North,0,0.0,0.0,69,0.00,,,0.00,,2013-03-01 21:11:00,
2013-03-01 16:21:00,29.0,20.0,30.07,North,0,0.0,0.0,69,0.00,,,0.00,,2013-03-01 21:21:00,
2013-03-01 16:32:00,29.0,20.0,30.07,North,0,0.0,0.0,69,0.00,,,0.00,,2013-03-01 21:32:00,
2013-03-01 16:42:00,29.0,20.0,30.07,North,0,0.0,0.0,69,0.00,,,0.00,,2013-03-01 21:42:00,
2013-03-01 16:52:00,29.0,20.0,30.07,North,0,0.0,0.0,69,0.00,,,0.00,,2013-03-01 21:52:00,
2013-03-01 17:01:00,29.0,20.0,30.07,North,0,5.0,8.0,70,0.00,,,0.00,,2013-03-01 22:01:00,
2013-03-01 17:11:00,29.0,20.0,30.07,NNW,338,2.0,7.0,70,0.00,,,0.00,,2013-03-01 22:11:00,
2013-03-01 17:21:00,29.0,20.0,30.07,NNW,338,2.0,7.0,70,0.00,,,0.00,,2013-03-01 22:21:00,
2013-03-01 17:32:00,29.0,20.0,30.07,NNW,338,0.0,0.0,70,0.00,,,0.00,,2013-03-01 22:32:00,
2013-03-01 17:42:00,29.0,20.0,30.07,NNW,338,0.0,0.0,70,0.00,,,0.00,,2013-03-01 22:42:00,
2013-03-01 17:52:00,28.0,20.0,30.08,North,0,0.0,0.0,70,0.00,,,0.00,,2013-03-01 22:52:00,
2013-03-01 18:01:00,28.0,20.0,30.08,NNE,23,0.0,0.0,71,0.00,,,0.00,,2013-03-01 23:01:00,
2013-03-01 18:11:00,28.0,20.0,30.08,NNE,23,0.0,0.0,71,0.00,,,0.00,,2013-03-01 23:11:00,
2013-03-01 18:21:00,28.0,20.0,30.09,North,0,1.0,2.0,71,0.00,,,0.00,,2013-03-01 23:21:00,
2013-03-01 18:32:00,27.0,19.0,30.09,NNW,338,7.0,7.0,71,0.00,,,0.00,,2013-03-01 23:32:00,
2013-03-01 18:41:00,27.0,19.0,30.09,NNW,338,7.0,7.0,71,0.00,,,0.00,,2013-03-01 23:41:00,
2013-03-01 18:52:00,27.0,19.0,30.10,North,0,0.0,0.0,72,0.00,,,0.00,,2013-03-01 23:52:00,
2013-03-01 19:02:00,27.0,19.0,30.10,NNE,23,0.0,0.0,72,0.00,,,0.00,,2013-03-02 00:02:00,
2013-03-01 19:12:00,27.0,19.0,30.10,NNE,23,0.0,0.0,72,0.00,,,0.00,,2013-03-02 00:12:00,
2013-03-01 19:22:00,27.0,20.0,30.10,NE,45,0.0,6.0,73,0.00,,,0.00,,2013-03-02 00:22:00,
2013-03-01 19:32:00,27.0,20.0,30.10,NNE,23,0.0,0.0,73,0.00,,,0.00,,2013-03-02 00:32:00,
2013-03-01 19:42:00,26.0,19.0,30.10,NNE,23,0.0,0.0,73,0.00,,,0.00,,2013-03-02 00:42:00,
2013-03-01 19:52:00,26.0,19.0,30.10,NNE,23,0.0,0.0,73,0.00,,,0.00,,2013-03-02 00:52:00,
2013-03-01 20:01:00,26.0,19.0,30.11,NNE,23,0.0,0.0,73,0.00,,,0.00,,2013-03-02 01:01:00,
2013-03-01 20:11:00,26.0,19.0,30.11,NE,45,0.0,0.0,73,0.00,,,0.00,,2013-03-02 01:11:00,
2013-03-01 20:21:00,26.0,19.0,30.11,NE,45,0.0,0.0,73,0.00,,,0.00,,2013-03-02 01:21:00,
2013-03-01 20:31:00,26.0,19.0,30.11,North,0,0.0,0.0,73,0.00,,,0.00,,2013-03-02 01:31:00,
2013-03-01 20:41:00,26.0,19.0,30.11,North,0,0.0,0.0,73,0.00,,,0.00,,2013-03-02 01:41:00,
2013-03-01 20:52:00,26.0,19.0,30.11,North,0,1.0,7.0,73,0.00,,,0.00,,2013-03-02 01:52:00,
2013-03-01 21:01:00,25.0,18.0,30.11,North,0,3.0,8.0,73,0.00,,,0.00,,2013-03-02 02:01:00,
2013-03-01 21:11:00,25.0,18.0,30.11,North,0,3.0,8.0,73,0.00,,,0.00,,2013-03-02 02:11:00,
2013-03-01 21:22:00,25.0,18.0,30.12,North,0,0.0,0.0,73,0.00,,,0.00,,2013-03-02 02:22:00,
2013-03-01 21:32:00,25.0,18.0,30.12,NNW,338,0.0,0.0,73,0.00,,,0.00,,2013-03-02 02:32:00,
2013-03-01 21:42:00,25.0,18.0,30.12,NNW,338,0.0,0.0,73,0.00,,,0.00,,2013-03-02 02:42:00,
2013-03-01 21:52:00,25.0,18.0,30.12,NNW,338,0.0,0.0,73,0.00,,,0.00,,2013-03-02 02:52:00,
2013-03-01 22:02:00,25.0,18.0,30.12,North,0,0.0,2.0,74,0.00,,,0.00,,2013-03-02 03:02:00,
2013-03-01 22:11:00,24.0,17.0,30.11,North,0,0.0,0.0,74,0.00,,,0.00,,2013-03-02 03:11:00,
2013-03-01 22:21:00,24.0,17.0,30.11,North,0,0.0,0.0,74,0.00,,,0.00,,2013-03-02 03:21:00,
2013-03-01 22:32:00,24.0,17.0,30.11,North,0,2.0,8.0,74,0.00,,,0.00,,2013-03-02 03:32:00,
2013-03-01 22:42:00,24.0,17.0,30.11,North,0,2.0,8.0,74,0.00,,,0.00,,2013-03-02 03:42:00,
2013-03-01 22:52:00,24.0,17.0,30.11,NNW,338,2.0,3.0,74,0.00,,,0.00,,2013-03-02 03:52:00,
2013-03-01 23:01:00,24.0,17.0,30.11,North,0,1.0,0.0,74,0.00,,,0.00,,2013-03-02 04:01:00,
2013-03-01 23:11:00,24.0,17.0,30.11,WNW,293,0.0,0.0,74,0.00,,,0.00,,2013-03-02 04:11:00,
2013-03-01 23:22:00,24.0,17.0,30.11,WNW,293,0.0,0.0,74,0.00,,,0.00,,2013-03-02 04:22:00,
2013-03-01 23:32:00,24.0,17.0,30.11,NNW,338,0.0,0.0,73,0.00,,,0.00,,2013-03-02 04:32:00,
2013-03-01 23:42:00,24.0,17.0,30.11,NNW,338,0.0,0.0,73,0.00,,,0.00,,2013-03-02 04:42:00,
2013-03-01 23:52:00,24.0,17.0,30.11,NW,315,3.0,3.0,73,0.00,,,0.00,,2013-03-02 04:52:00,